Time,TemperatureF,DewpointF,PressureIn,WindDirection,WindDirectionDegrees,WindSpeedMPH,WindSpeedGustMPH,Humidity,HourlyPrecipIn,Conditions,Clouds,dailyrainin,SoftwareType,DateUTC
2013-04-04 00:00:00,52.0,44.3,29.50,West,265,0.0,0.0,75,0.00,,---,0.00,VWS V14.01,2013-04-04 07:00:00,
2013-04-04 00:05:00,52.0,44.3,29.50,West,264,0.0,0.0,75,0.00,,---,0.00,VWS V14.01,2013-04-04 07:05:00,
2013-04-04 00:10:00,52.0,44.3,29.50,West,265,0.0,0.0,75,0.00,,---,0.00,VWS V14.01,2013-04-04 07:10:00,
2013-04-04 00:15:00,51.8,44.5,29.50,West,264,0.0,0.0,76,0.00,,---,0.00,VWS V14.01,2013-04-04 07:15:00,
2013-04-04 00:20:00,51.8,44.5,29.50,West,264,0.0,0.0,76,0.00,,---,0.00,VWS V14.01,2013-04-04 07:20:00,
2013-04-04 00:25:00,51.8,44.5,29.50,West,264,0.0,0.0,76,0.00,,---,0.00,VWS V14.01,2013-04-04 07:25:00,
2013-04-04 00:30:00,51.6,44.7,29.50,West,264,0.0,0.0,77,0.00,,---,0.00,VWS V14.01,2013-04-04 07:30:00,
2013-04-04 00:35:00,51.4,44.5,29.47,West,264,0.0,0.0,77,0.00,,---,0.00,VWS V14.01,2013-04-04 07:35:00,
2013-04-04 00:40:00,51.6,45.0,29.47,West,265,0.0,0.0,78,0.00,,---,0.00,VWS V14.01,2013-04-04 07:40:00,
2013-04-04 00:45:00,51.6,45.0,29.47,West,264,0.0,0.0,78,0.00,,---,0.00,VWS V14.01,2013-04-04 07:45:00,
2013-04-04 00:50:00,51.4,44.8,29.47,West,265,0.0,0.0,78,0.00,,---,0.00,VWS V14.01,2013-04-04 07:50:00,
2013-04-04 00:55:00,51.4,44.8,29.47,West,265,0.0,0.0,78,0.00,,---,0.00,VWS V14.01,2013-04-04 07:55:00,
2013-04-04 01:00:00,51.4,44.8,29.47,West,265,0.0,0.0,78,0.00,,---,0.00,VWS V14.01,2013-04-04 08:00:00,
2013-04-04 01:05:00,51.3,44.6,29.47,West,264,0.0,0.0,78,0.00,,---,0.00,VWS V14.01,2013-04-04 08:05:00,
2013-04-04 01:10:00,51.1,44.5,29.47,West,265,0.0,0.0,78,0.00,,---,0.00,VWS V14.01,2013-04-04 08:10:00,
2013-04-04 01:15:00,51.1,44.8,29.47,West,264,0.0,0.0,79,0.00,,---,0.00,VWS V14.01,2013-04-04 08:15:00,
2013-04-04 01:20:00,51.1,44.8,29.47,West,264,0.0,0.0,79,0.00,,---,0.00,VWS V14.01,2013-04-04 08:20:00,
2013-04-04 01:25:00,50.9,44.6,29.47,West,264,0.0,0.0,79,0.00,,---,0.00,VWS V14.01,2013-04-04 08:25:00,
2013-04-04 01:30:00,50.9,44.6,29.47,West,264,0.0,0.0,79,0.00,,---,0.00,VWS V14.01,2013-04-04 08:30:00,
2013-04-04 01:35:00,50.9,44.6,29.47,West,264,0.0,0.0,79,0.00,,---,0.00,VWS V14.01,2013-04-04 08:35:00,
2013-04-04 01:40:00,50.7,44.8,29.47,West,265,0.0,0.0,80,0.00,,---,0.00,VWS V14.01,2013-04-04 08:40:00,
2013-04-04 01:45:00,50.7,44.8,29.47,West,265,0.0,0.0,80,0.00,,---,0.00,VWS V14.01,2013-04-04 08:45:00,
2013-04-04 01:50:00,50.7,44.8,29.47,West,265,0.0,0.0,80,0.00,,---,0.00,VWS V14.01,2013-04-04 08:50:00,
2013-04-04 01:55:00,50.9,45.0,29.47,West,264,0.0,0.0,80,0.00,,---,0.00,VWS V14.01,2013-04-04 08:55:00,
2013-04-04 02:00:00,50.9,45.0,29.47,West,264,0.0,0.0,80,0.00,,---,0.00,VWS V14.01,2013-04-04 09:00:00,
2013-04-04 02:05:00,50.9,45.0,29.44,West,264,0.0,0.0,80,0.00,,---,0.00,VWS V14.01,2013-04-04 09:05:00,
2013-04-04 02:10:00,50.9,45.0,29.44,West,264,0.0,0.0,80,0.00,,---,0.00,VWS V14.01,2013-04-04 09:10:00,
2013-04-04 02:15:00,50.7,44.8,29.44,West,264,0.0,0.0,80,0.00,,---,0.00,VWS V14.01,2013-04-04 09:15:00,
2013-04-04 02:20:00,50.7,45.1,29.44,West,265,0.0,0.0,81,0.00,,---,0.00,VWS V14.01,2013-04-04 09:20:00,
2013-04-04 02:25:00,50.4,44.8,29.44,West,264,0.0,0.0,81,0.00,,---,0.00,VWS V14.01,2013-04-04 09:25:00,
2013-04-04 02:30:00,50.4,44.8,29.44,West,265,0.0,0.0,81,0.00,,---,0.00,VWS V14.01,2013-04-04 09:30:00,
2013-04-04 02:35:00,50.4,44.8,29.44,West,265,0.0,0.0,81,0.00,,---,0.00,VWS V14.01,2013-04-04 09:35:00,
2013-04-04 02:40:00,50.2,44.9,29.44,West,265,0.0,0.0,82,0.00,,---,0.00,VWS V14.01,2013-04-04 09:40:00,
2013-04-04 02:45:00,50.4,45.1,29.44,West,264,0.0,0.0,82,0.00,,---,0.00,VWS V14.01,2013-04-04 09:45:00,
2013-04-04 02:50:00,50.2,44.9,29.41,West,264,0.0,0.0,82,0.00,,---,0.00,VWS V14.01,2013-04-04 09:50:00,
2013-04-04 02:55:00,50.0,44.7,29.41,West,264,0.0,0.0,82,0.00,,---,0.00,VWS V14.01,2013-04-04 09:55:00,
2013-04-04 03:00:00,50.0,44.7,29.41,West,265,0.0,0.0,82,0.00,,---,0.00,VWS V14.01,2013-04-04 10:00:00,
2013-04-04 03:05:00,50.0,44.7,29.44,West,265,0.0,0.0,82,0.00,,---,0.00,VWS V14.01,2013-04-04 10:05:00,
2013-04-04 03:10:00,50.0,44.7,29.44,West,265,0.0,0.0,82,0.00,,---,0.00,VWS V14.01,2013-04-04 10:10:00,
2013-04-04 03:15:00,50.0,45.0,29.44,West,264,0.0,0.0,83,0.00,,---,0.00,VWS V14.01,2013-04-04 10:15:00,
2013-04-04 03:20:00,49.8,44.9,29.41,West,264,0.0,0.0,83,0.00,,---,0.00,VWS V14.01,2013-04-04 10:20:00,
2013-04-04 03:25:00,49.6,45.0,29.41,West,265,0.0,0.0,84,0.00,,---,0.00,VWS V14.01,2013-04-04 10:25:00,
2013-04-04 03:30:00,49.6,45.0,29.41,West,264,0.0,0.0,84,0.00,,---,0.00,VWS V14.01,2013-04-04 10:30:00,
2013-04-04 03:35:00,49.8,45.2,29.41,West,265,0.0,0.0,84,0.00,,---,0.00,VWS V14.01,2013-04-04 10:35:00,
2013-04-04 03:40:00,49.8,45.2,29.41,West,265,0.0,0.0,84,0.00,,---,0.00,VWS V14.01,2013-04-04 10:40:00,
2013-04-04 03:45:00,49.8,45.2,29.41,West,264,0.0,0.0,84,0.00,,---,0.00,VWS V14.01,2013-04-04 10:45:00,
2013-04-04 03:50:00,49.8,45.2,29.41,West,264,0.0,0.0,84,0.00,,---,0.00,VWS V14.01,2013-04-04 10:50:00,
2013-04-04 03:55:00,50.0,45.0,29.41,West,264,0.0,0.0,83,0.00,,---,0.00,VWS V14.01,2013-04-04 10:55:00,
2013-04-04 04:00:00,50.0,45.0,29.41,West,264,0.0,0.0,83,0.00,,---,0.00,VWS V14.01,2013-04-04 11:00:00,
2013-04-04 04:05:00,49.8,45.2,29.41,West,264,0.0,0.0,84,0.00,,---,0.00,VWS V14.01,2013-04-04 11:05:00,
2013-04-04 04:10:00,49.8,44.9,29.41,West,265,0.0,0.0,83,0.00,,---,0.00,VWS V14.01,2013-04-04 11:10:00,
2013-04-04 04:15:00,49.8,45.2,29.41,West,264,0.0,0.0,84,0.00,,---,0.00,VWS V14.01,2013-04-04 11:15:00,
2013-04-04 04:20:00,49.6,45.0,29.41,West,265,0.0,0.0,84,0.00,,---,0.00,VWS V14.01,2013-04-04 11:20:00,
2013-04-04 04:25:00,49.6,45.0,29.41,West,265,0.0,0.0,84,0.00,,---,0.00,VWS V14.01,2013-04-04 11:25:00,
2013-04-04 04:30:00,49.6,45.0,29.41,West,265,0.0,0.0,84,0.00,,---,0.00,VWS V14.01,2013-04-04 11:30:00,
2013-04-04 04:35:00,49.5,44.8,29.41,West,264,0.0,0.0,84,0.00,,---,0.00,VWS V14.01,2013-04-04 11:35:00,
2013-04-04 04:40:00,49.5,45.2,29.41,West,264,0.0,0.0,85,0.00,,---,0.00,VWS V14.01,2013-04-04 11:40:00,
2013-04-04 04:45:00,49.6,45.3,29.41,West,265,0.0,0.0,85,0.00,,---,0.00,VWS V14.01,2013-04-04 11:45:00,
2013-04-04 04:50:00,49.6,45.3,29.41,West,264,0.0,0.0,85,0.00,,---,0.00,VWS V14.01,2013-04-04 11:50:00,
2013-04-04 04:55:00,49.8,45.2,29.41,West,264,0.0,0.0,84,0.00,,---,0.00,VWS V14.01,2013-04-04 11:55:00,
2013-04-04 05:00:00,49.6,45.3,29.38,West,265,0.0,0.0,85,0.00,,---,0.00,VWS V14.01,2013-04-04 12:00:00,
2013-04-04 05:05:00,49.8,45.2,29.38,West,265,0.0,0.0,84,0.00,,---,0.00,VWS V14.01,2013-04-04 12:05:00,
2013-04-04 05:10:00,49.8,45.2,29.38,West,265,0.0,0.0,84,0.00,,---,0.00,VWS V14.01,2013-04-04 12:10:00,
2013-04-04 05:15:00,49.6,45.3,29.38,West,265,0.0,0.0,85,0.00,,---,0.00,VWS V14.01,2013-04-04 12:15:00,
2013-04-04 05:20:00,49.6,45.3,29.38,West,265,0.0,0.0,85,0.00,,---,0.00,VWS V14.01,2013-04-04 12:20:00,
2013-04-04 05:25:00,49.6,45.3,29.38,West,265,0.0,0.0,85,0.00,,---,0.00,VWS V14.01,2013-04-04 12:25:00,
2013-04-04 05:30:00,49.6,45.3,29.38,West,265,0.0,0.0,85,0.00,,---,0.00,VWS V14.01,2013-04-04 12:30:00,
2013-04-04 05:35:00,49.8,45.2,29.38,West,264,0.0,0.0,84,0.00,,---,0.00,VWS V14.01,2013-04-04 12:35:00,
2013-04-04 05:40:00,49.3,45.0,29.38,West,264,0.0,0.0,85,0.00,,---,0.00,VWS V14.01,2013-04-04 12:40:00,
2013-04-04 05:45:00,49.1,45.1,29.38,West,265,0.0,0.0,86,0.00,,---,0.00,VWS V14.01,2013-04-04 12:45:00,
2013-04-04 05:50:00,49.3,45.3,29.35,West,265,0.0,0.0,86,0.00,,---,0.00,VWS V14.01,2013-04-04 12:50:00,
2013-04-04 05:55:00,49.1,45.1,29.35,West,264,0.0,0.0,86,0.00,,---,0.00,VWS V14.01,2013-04-04 12:55:00,
2013-04-04 06:00:00,49.1,45.1,29.35,West,265,0.0,0.0,86,0.00,,---,0.00,VWS V14.01,2013-04-04 13:00:00,
2013-04-04 06:05:00,49.1,45.1,29.35,West,265,0.0,0.0,86,0.00,,---,0.00,VWS V14.01,2013-04-04 13:05:00,
2013-04-04 06:10:00,49.3,45.3,29.35,West,264,0.0,0.0,86,0.00,,---,0.00,VWS V14.01,2013-04-04 13:10:00,
2013-04-04 06:15:00,49.3,45.3,29.35,West,265,0.0,0.0,86,0.00,,---,0.00,VWS V14.01,2013-04-04 13:15:00,
2013-04-04 06:20:00,49.1,45.1,29.35,West,264,0.0,0.0,86,0.00,,---,0.00,VWS V14.01,2013-04-04 13:20:00,
2013-04-04 06:25:00,49.1,45.4,29.35,West,265,0.0,0.0,87,0.00,,---,0.00,VWS V14.01,2013-04-04 13:25:00,
2013-04-04 06:30:00,49.1,45.4,29.35,West,265,0.0,0.0,87,0.00,,---,0.00,VWS V14.01,2013-04-04 13:30:00,
2013-04-04 06:35:00,49.1,45.7,29.35,West,264,0.0,0.0,88,0.00,,---,0.00,VWS V14.01,2013-04-04 13:35:00,
2013-04-04 06:40:00,49.3,45.6,29.35,West,265,0.0,0.0,87,0.00,,---,0.00,VWS V14.01,2013-04-04 13:40:00,
2013-04-04 06:45:00,49.3,45.9,29.35,West,264,0.0,0.0,88,0.00,,---,0.00,VWS V14.01,2013-04-04 13:45:00,
2013-04-04 06:50:00,49.3,45.6,29.35,West,264,0.0,0.0,87,0.00,,---,0.00,VWS V14.01,2013-04-04 13:50:00,
2013-04-04 06:55:00,49.3,45.6,29.35,West,265,0.0,0.0,87,0.00,,---,0.00,VWS V14.01,2013-04-04 13:55:00,
2013-04-04 07:00:00,49.5,45.8,29.35,West,264,0.0,0.0,87,0.00,,---,0.00,VWS V14.01,2013-04-04 14:00:00,
2013-04-04 07:05:00,49.3,45.9,29.32,West,273,0.0,0.0,88,0.00,,---,0.00,VWS V14.01,2013-04-04 14:05:00,
2013-04-04 07:11:00,49.5,46.1,29.32,ENE,64,0.0,0.0,88,0.00,,---,0.00,VWS V14.01,2013-04-04 14:11:00,
2013-04-04 07:16:00,49.5,46.1,29.32,ENE,70,0.0,0.0,88,0.00,,---,0.00,VWS V14.01,2013-04-04 14:16:00,
2013-04-04 07:21:00,49.6,46.2,29.32,ENE,71,0.0,0.0,88,0.00,,---,0.00,VWS V14.01,2013-04-04 14:21:00,
2013-04-04 07:26:00,49.5,46.1,29.32,ENE,71,0.0,0.0,88,0.00,,---,0.00,VWS V14.01,2013-04-04 14:26:00,
2013-04-04 07:31:00,49.6,46.2,29.32,East,95,0.0,2.7,88,0.00,,---,0.00,VWS V14.01,2013-04-04 14:31:00,
2013-04-04 07:36:00,49.6,46.2,29.32,East,95,0.0,0.0,88,0.00,,---,0.00,VWS V14.01,2013-04-04 14:36:00,
2013-04-04 07:41:00,49.6,46.2,29.32,East,95,0.0,0.0,88,0.00,,---,0.00,VWS V14.01,2013-04-04 14:41:00,
2013-04-04 07:46:00,49.6,46.5,29.32,East,101,2.2,2.7,89,0.00,,---,0.00,VWS V14.01,2013-04-04 14:46:00,
2013-04-04 07:51:00,49.8,46.4,29.32,East,101,0.0,0.0,88,0.00,,---,0.00,VWS V14.01,2013-04-04 14:51:00,
2013-04-04 07:56:00,49.5,46.4,29.32,ENE,62,0.0,0.0,89,0.00,,---,0.00,VWS V14.01,2013-04-04 14:56:00,
2013-04-04 08:01:00,49.6,46.5,29.29,ENE,62,0.0,0.0,89,0.00,,---,0.00,VWS V14.01,2013-04-04 15:01:00,
2013-04-04 08:06:00,49.5,46.4,29.29,West,276,0.0,0.0,89,0.00,,---,0.00,VWS V14.01,2013-04-04 15:06:00,
2013-04-04 08:11:00,49.8,46.4,29.29,North,353,0.0,0.0,88,0.00,,---,0.00,VWS V14.01,2013-04-04 15:11:00,
2013-04-04 08:16:00,49.6,46.5,29.32,WSW,238,0.0,0.0,89,0.00,,---,0.00,VWS V14.01,2013-04-04 15:16:00,
2013-04-04 08:22:00,49.6,46.5,29.32,WSW,238,0.0,0.0,89,0.00,,---,0.00,VWS V14.01,2013-04-04 15:22:00,
2013-04-04 08:27:00,49.8,46.7,29.32,WSW,238,0.0,0.0,89,0.00,,---,0.00,VWS V14.01,2013-04-04 15:27:00,
2013-04-04 08:32:00,49.8,47.0,29.29,WSW,239,0.0,0.0,90,0.00,,---,0.00,VWS V14.01,2013-04-04 15:32:00,
2013-04-04 08:37:00,50.0,46.9,29.29,WSW,239,0.0,0.0,89,0.00,,---,0.00,VWS V14.01,2013-04-04 15:37:00,
2013-04-04 08:42:00,50.2,47.1,29.29,WSW,239,0.0,0.0,89,0.00,,---,0.00,VWS V14.01,2013-04-04 15:42:00,
2013-04-04 08:47:00,50.4,47.2,29.29,WSW,239,0.0,0.0,89,0.00,,---,0.00,VWS V14.01,2013-04-04 15:47:00,
2013-04-04 08:52:00,50.4,47.2,29.29,WSW,239,0.0,0.0,89,0.00,,---,0.00,VWS V14.01,2013-04-04 15:52:00,
2013-04-04 08:57:00,50.5,47.4,29.29,WSW,239,0.0,0.0,89,0.00,,---,0.00,VWS V14.01,2013-04-04 15:57:00,
2013-04-04 09:02:00,50.5,47.4,29.29,WSW,239,0.0,0.0,89,0.00,,---,0.00,VWS V14.01,2013-04-04 16:02:00,
2013-04-04 09:07:00,50.5,47.4,29.29,WSW,239,0.0,0.0,89,0.00,,---,0.00,VWS V14.01,2013-04-04 16:07:00,
2013-04-04 09:12:00,50.7,47.6,29.29,WSW,239,0.0,0.0,89,0.00,,---,0.00,VWS V14.01,2013-04-04 16:12:00,
2013-04-04 09:17:00,50.9,47.8,29.29,WSW,239,0.0,0.0,89,0.00,,---,0.00,VWS V14.01,2013-04-04 16:17:00,
2013-04-04 09:22:00,51.1,48.0,29.29,WSW,239,0.0,0.0,89,0.00,,---,0.00,VWS V14.01,2013-04-04 16:22:00,
2013-04-04 09:27:00,51.4,48.3,29.29,WSW,239,0.0,0.0,89,0.00,,---,0.00,VWS V14.01,2013-04-04 16:27:00,
2013-04-04 09:32:00,51.6,48.5,29.29,WSW,239,0.0,0.0,89,0.00,,---,0.00,VWS V14.01,2013-04-04 16:32:00,
2013-04-04 09:37:00,51.6,48.5,29.29,WSW,239,0.0,0.0,89,0.00,,---,0.00,VWS V14.01,2013-04-04 16:37:00,
2013-04-04 09:42:00,51.6,48.5,29.29,WSW,239,0.0,0.0,89,0.00,,---,0.00,VWS V14.01,2013-04-04 16:42:00,
2013-04-04 09:47:00,51.8,48.7,29.26,WSW,239,0.0,0.0,89,0.00,,---,0.00,VWS V14.01,2013-04-04 16:47:00,
2013-04-04 09:52:00,52.0,48.8,29.26,WSW,239,0.0,0.0,89,0.00,,---,0.00,VWS V14.01,2013-04-04 16:52:00,
2013-04-04 09:57:00,52.0,48.8,29.26,WSW,239,0.0,0.0,89,0.00,,---,0.00,VWS V14.01,2013-04-04 16:57:00,
2013-04-04 10:02:00,51.8,48.7,29.26,WSW,239,0.0,0.0,89,0.00,,---,0.00,VWS V14.01,2013-04-04 17:02:00,
2013-04-04 10:07:00,51.6,48.8,29.26,WSW,239,0.0,0.0,90,0.00,,---,0.00,VWS V14.01,2013-04-04 17:07:00,
2013-04-04 10:12:00,51.6,48.8,29.26,WSW,239,0.0,0.0,90,0.00,,---,0.00,VWS V14.01,2013-04-04 17:12:00,
2013-04-04 10:17:00,51.8,49.0,29.26,WSW,239,0.0,0.0,90,0.00,,---,0.00,VWS V14.01,2013-04-04 17:17:00,
2013-04-04 10:22:00,51.8,49.3,29.26,WSW,239,0.0,0.0,91,0.00,,---,0.00,VWS V14.01,2013-04-04 17:22:00,
2013-04-04 10:27:00,52.0,49.4,29.26,WSW,239,0.0,0.0,91,0.00,,---,0.00,VWS V14.01,2013-04-04 17:27:00,
2013-04-04 10:32:00,52.2,49.9,29.26,WSW,239,0.0,0.0,92,0.00,,---,0.00,VWS V14.01,2013-04-04 17:32:00,
2013-04-04 10:37:00,52.2,49.9,29.26,WSW,239,0.0,0.0,92,0.00,,---,0.00,VWS V14.01,2013-04-04 17:37:00,
2013-04-04 10:42:00,52.3,50.1,29.26,WSW,239,0.0,0.0,92,0.00,,---,0.00,VWS V14.01,2013-04-04 17:42:00,
2013-04-04 10:47:00,52.5,50.3,29.26,WSW,239,0.0,0.0,92,0.00,,---,0.00,VWS V14.01,2013-04-04 17:47:00,
2013-04-04 10:52:00,52.5,50.6,29.26,WSW,239,0.0,0.0,93,0.00,,---,0.00,VWS V14.01,2013-04-04 17:52:00,
2013-04-04 10:57:00,52.7,50.7,29.26,WSW,239,0.0,0.0,93,0.00,,---,0.00,VWS V14.01,2013-04-04 17:57:00,
2013-04-04 11:02:00,52.9,50.9,29.26,WSW,239,0.0,0.0,93,0.00,,---,0.00,VWS V14.01,2013-04-04 18:02:00,
2013-04-04 11:07:00,52.9,50.9,29.26,WSW,239,0.0,0.0,93,0.00,,---,0.00,VWS V14.01,2013-04-04 18:07:00,
2013-04-04 11:12:00,53.1,51.1,29.26,WSW,239,0.0,0.0,93,0.00,,---,0.00,VWS V14.01,2013-04-04 18:12:00,
2013-04-04 11:17:00,53.1,51.1,29.26,WSW,239,0.0,0.0,93,0.00,,---,0.00,VWS V14.01,2013-04-04 18:17:00,
2013-04-04 11:22:00,53.2,51.3,29.26,WSW,239,0.0,0.0,93,0.00,,---,0.00,VWS V14.01,2013-04-04 18:22:00,
2013-04-04 11:27:00,53.4,51.5,29.26,WSW,239,0.0,0.0,93,0.00,,---,0.00,VWS V14.01,2013-04-04 18:27:00,
2013-04-04 11:32:00,53.8,51.8,29.26,WSW,239,0.0,0.0,93,0.00,,---,0.00,VWS V14.01,2013-04-04 18:32:00,
2013-04-04 11:37:00,54.0,52.0,29.26,WSW,239,0.0,0.0,93,0.00,,---,0.00,VWS V14.01,2013-04-04 18:37:00,
2013-04-04 11:42:00,54.1,52.2,29.26,WSW,239,0.0,0.0,93,0.00,,---,0.00,VWS V14.01,2013-04-04 18:42:00,
2013-04-04 11:47:00,54.3,52.3,29.26,WSW,239,0.0,0.0,93,0.00,,---,0.00,VWS V14.01,2013-04-04 18:47:00,
2013-04-04 11:52:00,54.5,52.5,29.26,WSW,239,0.0,0.0,93,0.00,,---,0.00,VWS V14.01,2013-04-04 18:52:00,
2013-04-04 11:57:00,54.7,52.4,29.26,WSW,239,0.0,0.0,92,0.00,,---,0.00,VWS V14.01,2013-04-04 18:57:00,
2013-04-04 12:02:00,54.9,52.6,29.26,WSW,239,0.0,0.0,92,0.00,,---,0.00,VWS V14.01,2013-04-04 19:02:00,
2013-04-04 12:07:00,55.0,52.8,29.26,WSW,239,0.0,0.0,92,0.00,,---,0.00,VWS V14.01,2013-04-04 19:07:00,
2013-04-04 12:12:00,55.0,52.8,29.26,WSW,239,0.0,0.0,92,0.00,,---,0.00,VWS V14.01,2013-04-04 19:12:00,
2013-04-04 12:17:00,55.0,52.5,29.23,WSW,239,0.0,0.0,91,0.00,,---,0.00,VWS V14.01,2013-04-04 19:17:00,
2013-04-04 12:22:00,55.0,52.5,29.23,WSW,239,0.0,0.0,91,0.00,,---,0.00,VWS V14.01,2013-04-04 19:22:00,
2013-04-04 12:27:00,55.4,52.8,29.23,WSW,239,0.0,0.0,91,0.00,,---,0.00,VWS V14.01,2013-04-04 19:27:00,
2013-04-04 12:32:00,55.4,52.5,29.23,WSW,239,0.0,0.0,90,0.00,,---,0.00,VWS V14.01,2013-04-04 19:32:00,
2013-04-04 12:37:00,55.8,52.9,29.23,WSW,239,0.0,0.0,90,0.00,,---,0.00,VWS V14.01,2013-04-04 19:37:00,
2013-04-04 12:42:00,55.9,52.8,29.23,WSW,239,0.0,0.0,89,0.00,,---,0.00,VWS V14.01,2013-04-04 19:42:00,
2013-04-04 12:47:00,55.9,52.8,29.23,WSW,239,0.0,0.0,89,0.00,,---,0.00,VWS V14.01,2013-04-04 19:47:00,
2013-04-04 12:52:00,55.9,52.4,29.23,WSW,238,0.0,0.0,88,0.00,,---,0.00,VWS V14.01,2013-04-04 19:52:00,
2013-04-04 12:57:00,55.9,52.4,29.23,WSW,238,0.0,0.0,88,0.00,,---,0.00,VWS V14.01,2013-04-04 19:57:00,
2013-04-04 13:02:00,56.1,52.6,29.23,WSW,238,0.0,0.0,88,0.00,,---,0.00,VWS V14.01,2013-04-04 20:02:00,
2013-04-04 13:07:00,56.1,52.6,29.23,WSW,238,0.0,0.0,88,0.00,,---,0.00,VWS V14.01,2013-04-04 20:07:00,
2013-04-04 13:12:00,56.3,53.1,29.23,WSW,238,0.0,0.0,89,0.00,,---,0.00,VWS V14.01,2013-04-04 20:12:00,
2013-04-04 13:17:00,56.3,53.1,29.23,South,191,0.0,0.0,89,0.00,,---,0.00,VWS V14.01,2013-04-04 20:17:00,
2013-04-04 13:22:00,56.5,53.3,29.23,SE,137,0.0,0.0,89,0.00,,---,0.00,VWS V14.01,2013-04-04 20:22:00,
2013-04-04 13:27:00,56.3,53.1,29.23,SE,137,0.0,0.0,89,0.00,,---,0.00,VWS V14.01,2013-04-04 20:27:00,
2013-04-04 13:32:00,56.3,53.1,29.23,SW,219,0.0,0.0,89,0.00,,---,0.00,VWS V14.01,2013-04-04 20:32:00,
2013-04-04 13:37:00,56.1,52.9,29.23,SW,219,0.0,0.0,89,0.00,,---,0.00,VWS V14.01,2013-04-04 20:37:00,
2013-04-04 13:42:00,56.3,53.1,29.23,SW,219,0.0,0.0,89,0.00,,---,0.00,VWS V14.01,2013-04-04 20:42:00,
2013-04-04 13:47:00,56.3,53.1,29.23,SW,219,0.0,0.0,89,0.00,,---,0.00,VWS V14.01,2013-04-04 20:47:00,
2013-04-04 13:52:00,56.3,53.4,29.23,SW,224,0.0,0.0,90,0.00,,---,0.00,VWS V14.01,2013-04-04 20:52:00,
2013-04-04 13:57:00,56.1,53.2,29.23,SW,224,0.0,0.0,90,0.00,,---,0.00,VWS V14.01,2013-04-04 20:57:00,
2013-04-04 14:03:00,56.1,53.5,29.21,SSE,157,0.0,0.0,91,0.00,,---,0.00,VWS V14.01,2013-04-04 21:03:00,
2013-04-04 14:16:00,56.1,53.8,29.21,South,188,0.0,0.0,92,0.04,,---,0.04,VWS V14.01,2013-04-04 21:16:00,
2013-04-04 14:21:00,56.3,54.0,29.21,ENE,62,0.0,0.0,92,0.04,,---,0.04,VWS V14.01,2013-04-04 21:21:00,
2013-04-04 14:26:00,56.1,53.8,29.21,SSE,166,0.0,0.0,92,0.04,,---,0.04,VWS V14.01,2013-04-04 21:26:00,
2013-04-04 14:31:00,56.3,54.0,29.21,SSE,166,0.0,0.0,92,0.04,,---,0.04,VWS V14.01,2013-04-04 21:31:00,
2013-04-04 14:36:00,56.3,54.0,29.21,SSE,166,0.0,0.0,92,0.04,,---,0.04,VWS V14.01,2013-04-04 21:36:00,
2013-04-04 14:41:00,56.5,54.2,29.21,SSE,166,0.0,0.0,92,0.04,,---,0.04,VWS V14.01,2013-04-04 21:41:00,
2013-04-04 14:46:00,56.5,54.2,29.21,SSE,166,0.0,0.0,92,0.04,,---,0.04,VWS V14.01,2013-04-04 21:46:00,
2013-04-04 14:51:00,56.7,54.7,29.21,SSE,166,0.0,0.0,93,0.04,,---,0.04,VWS V14.01,2013-04-04 21:51:00,
2013-04-04 14:56:00,56.7,54.7,29.21,SSE,166,0.0,0.0,93,0.04,,---,0.04,VWS V14.01,2013-04-04 21:56:00,
2013-04-04 15:01:00,56.5,54.5,29.21,SSE,166,0.0,0.0,93,0.04,,---,0.04,VWS V14.01,2013-04-04 22:01:00,
2013-04-04 15:06:00,56.5,54.5,29.21,SSE,166,0.0,0.0,93,0.04,,---,0.04,VWS V14.01,2013-04-04 22:06:00,
2013-04-04 15:11:00,56.5,54.5,29.21,SSE,166,0.0,0.0,93,0.04,,---,0.04,VWS V14.01,2013-04-04 22:11:00,
2013-04-04 15:16:00,56.5,54.5,29.21,SSE,166,0.0,0.0,93,0.04,,---,0.04,VWS V14.01,2013-04-04 22:16:00,
2013-04-04 15:21:00,56.5,54.5,29.21,SSE,166,0.0,0.0,93,0.00,,---,0.04,VWS V14.01,2013-04-04 22:21:00,
2013-04-04 15:27:00,56.5,54.5,29.21,SSE,166,0.0,0.0,93,0.00,,---,0.04,VWS V14.01,2013-04-04 22:27:00,
2013-04-04 15:32:00,56.5,54.8,29.21,SSE,166,0.0,0.0,94,0.00,,---,0.04,VWS V14.01,2013-04-04 22:32:00,
2013-04-04 15:37:00,56.5,54.8,29.21,SSE,166,0.0,0.0,94,0.00,,---,0.04,VWS V14.01,2013-04-04 22:37:00,
2013-04-04 15:42:00,56.7,55.0,29.21,SSE,166,0.0,0.0,94,0.00,,---,0.04,VWS V14.01,2013-04-04 22:42:00,
2013-04-04 15:47:00,56.7,55.0,29.21,SSE,166,0.0,0.0,94,0.00,,---,0.04,VWS V14.01,2013-04-04 22:47:00,
2013-04-04 15:52:00,56.7,55.0,29.21,SSE,166,0.0,0.0,94,0.00,,---,0.04,VWS V14.01,2013-04-04 22:52:00,
2013-04-04 15:57:00,56.7,55.0,29.21,SSE,166,0.0,0.0,94,0.08,,---,0.12,VWS V14.01,2013-04-04 22:57:00,
2013-04-04 16:02:00,56.8,55.1,29.21,SSE,166,0.0,0.0,94,0.08,,---,0.12,VWS V14.01,2013-04-04 23:02:00,
2013-04-04 16:07:00,57.0,55.3,29.21,East,88,0.0,2.2,94,0.08,,---,0.12,VWS V14.01,2013-04-04 23:07:00,
2013-04-04 16:12:00,57.2,55.2,29.21,ENE,70,2.7,2.7,93,0.08,,---,0.12,VWS V14.01,2013-04-04 23:12:00,
2013-04-04 16:17:00,57.2,55.2,29.21,SSE,153,0.0,2.2,93,0.08,,---,0.12,VWS V14.01,2013-04-04 23:17:00,
2013-04-04 16:22:00,57.2,55.2,29.21,SSE,153,0.0,0.0,93,0.08,,---,0.12,VWS V14.01,2013-04-04 23:22:00,
2013-04-04 16:27:00,57.2,55.2,29.21,NNE,33,2.7,2.7,93,0.08,,---,0.12,VWS V14.01,2013-04-04 23:27:00,
2013-04-04 16:32:00,57.0,55.0,29.21,East,93,0.0,0.0,93,0.08,,---,0.12,VWS V14.01,2013-04-04 23:32:00,
2013-04-04 16:37:00,57.2,55.2,29.21,SSE,156,0.0,0.0,93,0.08,,---,0.12,VWS V14.01,2013-04-04 23:37:00,
2013-04-04 16:42:00,57.0,55.0,29.21,SE,124,2.2,2.7,93,0.08,,---,0.12,VWS V14.01,2013-04-04 23:42:00,
2013-04-04 16:47:00,56.7,54.7,29.21,NE,36,0.0,0.0,93,0.12,,---,0.16,VWS V14.01,2013-04-04 23:47:00,
2013-04-04 16:52:00,56.8,54.8,29.21,ENE,65,3.1,3.1,93,0.12,,---,0.16,VWS V14.01,2013-04-04 23:52:00,
2013-04-04 16:57:00,56.5,54.5,29.21,ESE,117,0.0,0.0,93,0.04,,---,0.16,VWS V14.01,2013-04-04 23:57:00,
2013-04-04 17:02:00,56.3,54.0,29.21,SE,129,0.0,0.0,92,0.04,,---,0.16,VWS V14.01,2013-04-05 00:02:00,
2013-04-04 17:07:00,56.1,54.1,29.21,ESE,119,0.0,0.0,93,0.04,,---,0.16,VWS V14.01,2013-04-05 00:07:00,
2013-04-04 17:12:00,55.9,54.0,29.21,ESE,120,0.0,0.0,93,0.04,,---,0.16,VWS V14.01,2013-04-05 00:12:00,
2013-04-04 17:17:00,56.1,53.8,29.21,ESE,120,0.0,0.0,92,0.04,,---,0.16,VWS V14.01,2013-04-05 00:17:00,
2013-04-04 17:22:00,55.9,53.7,29.21,SSW,195,0.0,0.0,92,0.08,,---,0.20,VWS V14.01,2013-04-05 00:22:00,
2013-04-04 17:27:00,55.9,53.7,29.21,SSW,195,0.0,0.0,92,0.08,,---,0.20,VWS V14.01,2013-04-05 00:27:00,
2013-04-04 17:32:00,55.9,53.7,29.21,SSW,195,0.0,0.0,92,0.08,,---,0.20,VWS V14.01,2013-04-05 00:32:00,
2013-04-04 17:37:00,55.9,53.7,29.21,SE,127,0.0,0.0,92,0.08,,---,0.20,VWS V14.01,2013-04-05 00:37:00,
2013-04-04 17:42:00,55.8,53.5,29.21,SE,127,0.0,0.0,92,0.08,,---,0.20,VWS V14.01,2013-04-05 00:42:00,
2013-04-04 17:47:00,55.8,53.5,29.21,SE,144,0.0,0.0,92,0.04,,---,0.20,VWS V14.01,2013-04-05 00:47:00,
2013-04-04 17:52:00,55.6,53.3,29.21,SE,144,0.0,0.0,92,0.04,,---,0.20,VWS V14.01,2013-04-05 00:52:00,
2013-04-04 17:57:00,55.4,53.1,29.23,SSW,204,0.0,0.0,92,0.04,,---,0.20,VWS V14.01,2013-04-05 00:57:00,
2013-04-04 18:02:00,55.2,53.2,29.23,WNW,292,0.0,0.0,93,0.04,,---,0.20,VWS V14.01,2013-04-05 01:02:00,
2013-04-04 18:07:00,55.2,53.2,29.23,SSW,209,5.4,5.4,93,0.04,,---,0.20,VWS V14.01,2013-04-05 01:07:00,
2013-04-04 18:12:00,55.8,53.8,29.23,SE,125,2.2,2.2,93,0.04,,---,0.20,VWS V14.01,2013-04-05 01:12:00,
2013-04-04 18:17:00,55.8,53.8,29.23,WSW,242,6.3,6.3,93,0.04,,---,0.20,VWS V14.01,2013-04-05 01:17:00,
2013-04-04 18:22:00,55.9,54.0,29.23,ESE,115,5.8,5.8,93,0.00,,---,0.20,VWS V14.01,2013-04-05 01:22:00,
2013-04-04 18:27:00,55.9,54.0,29.23,South,169,3.1,3.1,93,0.00,,---,0.20,VWS V14.01,2013-04-05 01:27:00,
2013-04-04 18:32:00,55.9,54.0,29.23,SW,231,5.8,5.8,93,0.00,,---,0.20,VWS V14.01,2013-04-05 01:32:00,
2013-04-04 18:37:00,55.9,54.0,29.23,WSW,240,3.1,3.1,93,0.04,,---,0.24,VWS V14.01,2013-04-05 01:37:00,
2013-04-04 18:42:00,56.1,54.1,29.23,West,268,2.7,2.7,93,0.04,,---,0.24,VWS V14.01,2013-04-05 01:42:00,
2013-04-04 18:47:00,56.1,53.8,29.26,South,180,6.3,6.3,92,0.04,,---,0.24,VWS V14.01,2013-04-05 01:47:00,
2013-04-04 18:52:00,56.1,53.8,29.26,North,353,3.6,3.6,92,0.04,,---,0.24,VWS V14.01,2013-04-05 01:52:00,
2013-04-04 18:57:00,56.1,53.8,29.26,WSW,246,5.8,5.8,92,0.04,,---,0.24,VWS V14.01,2013-04-05 01:57:00,
2013-04-04 19:02:00,56.3,53.7,29.26,WNW,282,3.6,3.6,91,0.04,,---,0.24,VWS V14.01,2013-04-05 02:02:00,
2013-04-04 19:07:00,56.5,53.6,29.26,SW,226,2.2,2.2,90,0.04,,---,0.24,VWS V14.01,2013-04-05 02:07:00,
2013-04-04 19:12:00,56.7,53.8,29.26,WNW,290,3.6,3.6,90,0.04,,---,0.24,VWS V14.01,2013-04-05 02:12:00,
2013-04-04 19:17:00,56.7,53.5,29.26,SE,134,3.6,3.6,89,0.04,,---,0.24,VWS V14.01,2013-04-05 02:17:00,
2013-04-04 19:22:00,56.7,53.5,29.26,South,185,3.1,3.6,89,0.04,,---,0.24,VWS V14.01,2013-04-05 02:22:00,
2013-04-04 19:27:00,56.7,53.2,29.26,SSE,150,2.7,4.5,88,0.04,,---,0.24,VWS V14.01,2013-04-05 02:27:00,
2013-04-04 19:32:00,56.5,52.7,29.26,SSE,150,2.7,2.7,87,0.04,,---,0.24,VWS V14.01,2013-04-05 02:32:00,
2013-04-04 19:37:00,56.5,52.7,29.26,SE,137,0.0,2.7,87,0.00,,---,0.24,VWS V14.01,2013-04-05 02:37:00,
2013-04-04 19:42:00,56.3,52.2,29.26,SW,234,2.2,2.2,86,0.00,,---,0.24,VWS V14.01,2013-04-05 02:42:00,
2013-04-04 19:47:00,56.1,52.3,29.26,NW,326,2.2,2.2,87,0.00,,---,0.24,VWS V14.01,2013-04-05 02:47:00,
2013-04-04 19:52:00,56.3,52.2,29.26,SW,222,3.6,3.6,86,0.00,,---,0.24,VWS V14.01,2013-04-05 02:52:00,
2013-04-04 19:57:00,56.3,52.2,29.26,SSW,195,0.0,0.0,86,0.00,,---,0.24,VWS V14.01,2013-04-05 02:57:00,
2013-04-04 20:02:00,55.9,51.8,29.26,South,175,0.0,0.0,86,0.00,,---,0.24,VWS V14.01,2013-04-05 03:02:00,
2013-04-04 20:07:00,55.9,51.8,29.26,South,175,0.0,0.0,86,0.00,,---,0.24,VWS V14.01,2013-04-05 03:07:00,
2013-04-04 20:12:00,56.1,52.0,29.26,SSW,200,2.2,2.2,86,0.00,,---,0.24,VWS V14.01,2013-04-05 03:12:00,
2013-04-04 20:17:00,56.1,52.0,29.26,East,87,0.0,0.0,86,0.00,,---,0.24,VWS V14.01,2013-04-05 03:17:00,
2013-04-04 20:22:00,55.9,51.8,29.29,SW,220,0.0,0.0,86,0.00,,---,0.24,VWS V14.01,2013-04-05 03:22:00,
2013-04-04 20:27:00,55.9,51.8,29.29,WSW,249,0.0,0.0,86,0.00,,---,0.24,VWS V14.01,2013-04-05 03:27:00,
2013-04-04 20:32:00,55.8,51.6,29.29,SSW,198,3.6,3.6,86,0.00,,---,0.24,VWS V14.01,2013-04-05 03:32:00,
2013-04-04 20:37:00,55.8,51.6,29.29,South,187,3.1,3.6,86,0.00,,---,0.24,VWS V14.01,2013-04-05 03:37:00,
2013-04-04 20:42:00,55.9,51.8,29.29,SSE,154,4.0,4.0,86,0.00,,---,0.24,VWS V14.01,2013-04-05 03:42:00,
2013-04-04 20:47:00,56.3,51.5,29.29,South,183,2.7,2.7,84,0.00,,---,0.24,VWS V14.01,2013-04-05 03:47:00,
2013-04-04 20:52:00,56.3,51.5,29.29,ENE,77,2.7,2.7,84,0.00,,---,0.24,VWS V14.01,2013-04-05 03:52:00,
2013-04-04 20:57:00,56.1,51.4,29.29,WSW,252,0.0,5.4,84,0.00,,---,0.24,VWS V14.01,2013-04-05 03:57:00,
2013-04-04 21:00:00,56.3,51.5,29.29,South,184,4.0,4.0,84,0.00,,---,0.24,VWS V14.01,2013-04-05 04:00:00,
2013-04-04 21:05:00,56.1,51.0,29.29,SSW,207,3.1,3.1,83,0.00,,---,0.24,VWS V14.01,2013-04-05 04:05:00,
2013-04-04 21:10:00,56.1,51.0,29.29,SW,235,3.1,3.1,83,0.00,,---,0.24,VWS V14.01,2013-04-05 04:10:00,
2013-04-04 21:15:00,56.1,51.0,29.29,ESE,120,3.6,3.6,83,0.00,,---,0.24,VWS V14.01,2013-04-05 04:15:00,
2013-04-04 21:20:00,55.9,50.9,29.29,South,169,4.0,4.0,83,0.00,,---,0.24,VWS V14.01,2013-04-05 04:20:00,
2013-04-04 21:25:00,55.9,50.9,29.29,SW,220,0.0,0.0,83,0.00,,---,0.24,VWS V14.01,2013-04-05 04:25:00,
2013-04-04 21:30:00,55.8,50.7,29.29,SSE,157,2.2,2.2,83,0.00,,---,0.24,VWS V14.01,2013-04-05 04:30:00,
2013-04-04 21:35:00,55.8,50.7,29.29,WSW,254,5.4,5.4,83,0.00,,---,0.24,VWS V14.01,2013-04-05 04:35:00,
2013-04-04 21:40:00,55.8,50.7,29.26,West,279,0.0,4.0,83,0.00,,---,0.24,VWS V14.01,2013-04-05 04:40:00,
2013-04-04 21:45:00,55.8,50.7,29.26,South,181,3.1,3.1,83,0.00,,---,0.24,VWS V14.01,2013-04-05 04:45:00,
2013-04-04 21:50:00,55.8,50.7,29.26,SW,236,3.1,3.1,83,0.00,,---,0.24,VWS V14.01,2013-04-05 04:50:00,
2013-04-04 21:55:00,55.8,50.7,29.29,West,263,2.2,2.2,83,0.00,,---,0.24,VWS V14.01,2013-04-05 04:55:00,
2013-04-04 22:00:00,55.6,50.8,29.29,SW,232,0.0,0.0,84,0.00,,---,0.24,VWS V14.01,2013-04-05 05:00:00,
2013-04-04 22:05:00,55.4,50.7,29.29,SE,145,0.0,0.0,84,0.00,,---,0.24,VWS V14.01,2013-04-05 05:05:00,
2013-04-04 22:10:00,55.4,50.7,29.29,SW,221,3.6,3.6,84,0.00,,---,0.24,VWS V14.01,2013-04-05 05:10:00,
2013-04-04 22:15:00,55.4,50.7,29.29,SSW,212,0.0,0.0,84,0.00,,---,0.24,VWS V14.01,2013-04-05 05:15:00,
2013-04-04 22:20:00,55.2,50.8,29.29,SSW,212,0.0,0.0,85,0.00,,---,0.24,VWS V14.01,2013-04-05 05:20:00,
2013-04-04 22:25:00,55.2,50.8,29.29,SSW,212,0.0,0.0,85,0.00,,---,0.24,VWS V14.01,2013-04-05 05:25:00,
2013-04-04 22:30:00,54.5,50.7,29.29,SSW,212,0.0,0.0,87,0.00,,---,0.24,VWS V14.01,2013-04-05 05:30:00,
2013-04-04 22:35:00,54.5,50.7,29.29,SSW,212,0.0,0.0,87,0.00,,---,0.24,VWS V14.01,2013-04-05 05:35:00,
2013-04-04 22:40:00,54.5,50.7,29.29,SSW,212,0.0,0.0,87,0.00,,---,0.24,VWS V14.01,2013-04-05 05:40:00,
2013-04-04 22:45:00,54.3,50.8,29.29,SSW,212,0.0,0.0,88,0.00,,---,0.24,VWS V14.01,2013-04-05 05:45:00,
2013-04-04 22:50:00,54.3,51.2,29.29,West,265,5.4,5.4,89,0.00,,---,0.24,VWS V14.01,2013-04-05 05:50:00,
2013-04-04 22:55:00,54.3,51.2,29.29,WSW,245,0.0,0.0,89,0.00,,---,0.24,VWS V14.01,2013-04-05 05:55:00,
2013-04-04 23:00:00,54.1,51.3,29.29,West,266,0.0,0.0,90,0.00,,---,0.24,VWS V14.01,2013-04-05 06:00:00,
2013-04-04 23:05:00,54.0,51.4,29.29,West,268,0.0,0.0,91,0.00,,---,0.24,VWS V14.01,2013-04-05 06:05:00,
2013-04-04 23:10:00,54.0,51.4,29.29,SSE,164,3.6,3.6,91,0.00,,---,0.24,VWS V14.01,2013-04-05 06:10:00,
2013-04-04 23:15:00,54.0,51.4,29.29,West,281,2.7,4.0,91,0.00,,---,0.24,VWS V14.01,2013-04-05 06:15:00,
2013-04-04 23:20:00,54.1,51.9,29.29,SW,225,5.4,5.4,92,0.00,,---,0.24,VWS V14.01,2013-04-05 06:20:00,
2013-04-04 23:25:00,54.1,51.9,29.29,ESE,109,6.3,6.3,92,0.00,,---,0.24,VWS V14.01,2013-04-05 06:25:00,
2013-04-04 23:30:00,54.7,51.8,29.29,East,93,2.7,2.7,90,0.00,,---,0.24,VWS V14.01,2013-04-05 06:30:00,
2013-04-04 23:35:00,54.7,51.8,29.29,SW,224,3.1,3.1,90,0.00,,---,0.24,VWS V14.01,2013-04-05 06:35:00,
2013-04-04 23:40:00,54.5,51.3,29.29,ENE,70,2.7,2.7,89,0.00,,---,0.24,VWS V14.01,2013-04-05 06:40:00,
2013-04-04 23:45:00,54.5,51.3,29.29,NE,53,3.1,3.1,89,0.00,,---,0.24,VWS V14.01,2013-04-05 06:45:00,
2013-04-04 23:50:00,54.5,51.3,29.29,WNW,291,0.0,3.1,89,0.00,,---,0.24,VWS V14.01,2013-04-05 06:50:00,
2013-04-04 23:55:00,54.5,51.3,29.29,West,259,8.3,8.3,89,0.00,,---,0.24,VWS V14.01,2013-04-05 06:55:00,